TimeCST,TemperatureF,Dew PointF,Humidity,Sea Level PressureIn,VisibilityMPH,Wind Direction,Wind SpeedMPH,Gust SpeedMPH,PrecipitationIn,Events,Conditions,WindDirDegrees,DateUTC
12:10 AM,26.1,25.3,97,30.29,5.0,North,5.8,-,N/A,,Overcast,360,2014-02-11 06:10:00
12:30 AM,26.1,25.3,97,30.28,4.0,North,5.8,-,N/A,,Overcast,10,2014-02-11 06:30:00
12:50 AM,26.2,25.7,98,30.28,4.0,North,6.9,-,N/A,,Overcast,350,2014-02-11 06:50:00
1:10 AM,26.6,26.2,99,30.27,3.0,North,4.6,-,N/A,,Overcast,350,2014-02-11 07:10:00
1:30 AM,26.6,26.4,99,30.27,3.0,North,4.6,-,N/A,,Overcast,360,2014-02-11 07:30:00
1:50 AM,27.1,27.0,99,30.30,3.0,North,5.8,-,N/A,,Overcast,360,2014-02-11 07:50:00
2:10 AM,27.3,27.1,99,30.29,4.0,NNE,8.1,-,N/A,,Overcast,20,2014-02-11 08:10:00
2:30 AM,27.5,27.1,99,30.29,3.0,NNE,5.8,-,N/A,,Overcast,20,2014-02-11 08:30:00
2:50 AM,27.5,27.1,99,30.30,3.0,NNE,5.8,-,N/A,,Overcast,20,2014-02-11 08:50:00
3:10 AM,27.5,27.1,99,30.28,3.0,NNE,12.7,16.1,N/A,,Overcast,20,2014-02-11 09:10:00
3:30 AM,27.5,27.1,99,30.26,3.0,NNE,12.7,18.4,N/A,,Overcast,30,2014-02-11 09:30:00
3:50 AM,27.5,27.1,99,30.27,3.0,NNE,6.9,19.6,N/A,,Overcast,20,2014-02-11 09:50:00
4:10 AM,27.5,27.1,99,30.28,4.0,North,8.1,-,N/A,,Overcast,10,2014-02-11 10:10:00
4:30 AM,27.0,26.6,99,30.28,3.0,NNE,10.4,16.1,N/A,,Overcast,20,2014-02-11 10:30:00
4:50 AM,26.6,26.4,99,30.28,4.0,NNE,8.1,-,N/A,,Overcast,20,2014-02-11 10:50:00
5:10 AM,26.4,26.1,99,30.29,5.0,North,9.2,-,N/A,,Overcast,10,2014-02-11 11:10:00
5:30 AM,26.2,25.7,98,30.30,7.0,North,10.4,-,N/A,,Overcast,10,2014-02-11 11:30:00
5:50 AM,26.1,25.0,96,30.29,7.0,North,8.1,-,N/A,,Overcast,10,2014-02-11 11:50:00
6:10 AM,25.7,24.8,96,30.30,7.0,North,12.7,-,N/A,,Overcast,360,2014-02-11 12:10:00
6:30 AM,25.7,24.6,96,30.30,7.0,North,10.4,-,N/A,,Overcast,10,2014-02-11 12:30:00
6:50 AM,25.5,24.3,95,30.30,7.0,NNE,10.4,-,N/A,,Overcast,20,2014-02-11 12:50:00
7:10 AM,25.2,23.9,95,30.30,10.0,NNE,5.8,-,N/A,,Overcast,20,2014-02-11 13:10:00
7:30 AM,25.0,23.7,95,30.32,10.0,North,9.2,-,N/A,,Overcast,360,2014-02-11 13:30:00
7:50 AM,24.8,23.5,95,30.32,7.0,North,10.4,-,N/A,,Overcast,360,2014-02-11 13:50:00
8:10 AM,24.6,22.8,93,30.33,10.0,NNE,10.4,-,N/A,,Overcast,20,2014-02-11 14:10:00
8:30 AM,24.8,23.5,95,30.34,7.0,North,9.2,-,N/A,,Overcast,360,2014-02-11 14:30:00
8:50 AM,24.8,23.5,95,30.33,7.0,North,10.4,-,N/A,,Overcast,10,2014-02-11 14:50:00
9:10 AM,24.3,22.8,94,30.35,10.0,North,9.2,-,N/A,,Overcast,360,2014-02-11 15:10:00
9:30 AM,24.3,22.5,93,30.35,10.0,North,4.6,-,N/A,,Overcast,10,2014-02-11 15:30:00
9:50 AM,24.4,22.8,94,30.35,10.0,North,9.2,-,N/A,,Overcast,360,2014-02-11 15:50:00
10:10 AM,24.6,23.0,94,30.35,10.0,North,5.8,-,N/A,,Overcast,360,2014-02-11 16:10:00
10:30 AM,24.8,23.2,94,30.35,7.0,North,6.9,-,N/A,,Overcast,360,2014-02-11 16:30:00
10:50 AM,25.3,23.2,91,30.35,10.0,North,8.1,-,N/A,,Overcast,360,2014-02-11 16:50:00
11:10 AM,25.7,23.7,92,30.34,10.0,North,8.1,-,N/A,,Overcast,350,2014-02-11 17:10:00
11:30 AM,25.7,23.7,92,30.33,10.0,North,8.1,-,N/A,,Overcast,350,2014-02-11 17:30:00
11:50 AM,26.1,24.3,93,30.33,7.0,NNW,13.8,-,N/A,,Overcast,330,2014-02-11 17:50:00
12:10 PM,26.4,24.6,93,30.33,7.0,NW,9.2,-,N/A,,Overcast,320,2014-02-11 18:10:00
12:30 PM,26.6,25.0,94,30.32,7.0,NNW,10.4,-,N/A,,Overcast,330,2014-02-11 18:30:00
12:50 PM,26.8,25.2,94,30.31,7.0,NW,5.8,-,N/A,,Overcast,310,2014-02-11 18:50:00
1:10 PM,26.6,24.8,93,30.30,7.0,NNW,5.8,-,N/A,,Overcast,340,2014-02-11 19:10:00
1:30 PM,27.0,25.7,95,30.29,2.5,NNW,6.9,-,N/A,Snow,Light Snow,340,2014-02-11 19:30:00
1:50 PM,26.6,25.0,94,30.28,4.0,NNW,8.1,-,N/A,Snow,Light Snow,330,2014-02-11 19:50:00
2:10 PM,27.0,25.5,94,30.27,3.0,NNW,8.1,-,N/A,Snow,Light Snow,340,2014-02-11 20:10:00
2:30 PM,27.0,25.3,94,30.26,7.0,NNW,10.4,-,N/A,,Overcast,330,2014-02-11 20:30:00
2:50 PM,27.5,26.1,94,30.25,5.0,NNW,10.4,-,N/A,,Overcast,330,2014-02-11 20:50:00
3:10 PM,27.5,26.2,95,30.25,3.0,NNW,5.8,-,N/A,,Overcast,340,2014-02-11 21:10:00
3:30 PM,28.0,26.2,93,30.25,5.0,NNW,8.1,-,N/A,,Overcast,340,2014-02-11 21:30:00
3:50 PM,28.2,26.4,93,30.24,5.0,NNW,6.9,-,N/A,,Overcast,340,2014-02-11 21:50:00
4:10 PM,28.4,26.6,93,30.24,5.0,NNW,8.1,-,N/A,,Overcast,340,2014-02-11 22:10:00
4:30 PM,28.9,27.0,92,30.24,5.0,NNW,5.8,-,N/A,,Overcast,330,2014-02-11 22:30:00
4:50 PM,29.1,27.0,92,30.23,5.0,North,5.8,-,N/A,,Overcast,350,2014-02-11 22:50:00
5:10 PM,29.1,27.1,92,30.23,5.0,North,5.8,-,N/A,,Overcast,350,2014-02-11 23:10:00
5:30 PM,29.3,27.3,92,30.23,7.0,North,5.8,-,N/A,,Overcast,350,2014-02-11 23:30:00
5:50 PM,29.3,27.5,93,30.25,5.0,NNW,6.9,-,N/A,,Overcast,340,2014-02-11 23:50:00
6:10 PM,29.5,27.5,92,30.25,5.0,NNW,5.8,-,N/A,,Overcast,340,2014-02-12 00:10:00
6:30 PM,29.3,27.3,92,30.26,7.0,NNW,4.6,-,N/A,,Overcast,340,2014-02-12 00:30:00
6:50 PM,29.5,27.5,92,30.26,7.0,NNW,3.5,-,N/A,,Overcast,330,2014-02-12 00:50:00
7:10 PM,29.7,27.9,93,30.26,7.0,NNW,4.6,-,N/A,,Overcast,330,2014-02-12 01:10:00
7:30 PM,29.7,27.9,93,30.26,7.0,NNW,3.5,-,N/A,,Overcast,330,2014-02-12 01:30:00
7:50 PM,29.7,27.9,93,30.25,7.0,Calm,Calm,-,N/A,,Overcast,0,2014-02-12 01:50:00
8:10 PM,29.8,28.2,94,30.24,5.0,North,3.5,-,N/A,,Overcast,360,2014-02-12 02:10:00
8:30 PM,29.7,28.0,94,30.24,7.0,North,3.5,-,N/A,,Overcast,350,2014-02-12 02:30:00
8:50 PM,29.8,28.4,94,30.23,5.0,Calm,Calm,-,N/A,,Overcast,0,2014-02-12 02:50:00
9:10 PM,29.7,28.0,94,30.23,5.0,Calm,Calm,-,N/A,,Overcast,0,2014-02-12 03:10:00
9:30 PM,29.7,27.9,93,30.23,7.0,Calm,Calm,-,N/A,,Overcast,0,2014-02-12 03:30:00
9:50 PM,29.8,28.4,94,30.24,5.0,Calm,Calm,-,N/A,,Overcast,0,2014-02-12 03:50:00
10:10 PM,29.8,28.4,94,30.25,5.0,Calm,Calm,-,N/A,,Overcast,0,2014-02-12 04:10:00
10:30 PM,29.8,28.4,94,30.25,5.0,NNW,3.5,-,N/A,,Overcast,330,2014-02-12 04:30:00
10:50 PM,29.8,28.4,94,30.26,5.0,NNW,3.5,-,N/A,,Overcast,330,2014-02-12 04:50:00
11:10 PM,29.8,28.4,94,30.25,5.0,NNW,3.5,-,N/A,,Overcast,340,2014-02-12 05:10:00
11:30 PM,29.8,28.2,94,30.25,5.0,NNW,3.5,-,N/A,,Overcast,340,2014-02-12 05:30:00
11:50 PM,29.8,28.2,94,30.24,5.0,Calm,Calm,-,N/A,,Overcast,0,2014-02-12 05:50:00